Theta_e
328 328 329 329 330 331 331 330 330 331 331 330 329 329 331 331 331 331 330 329 328 328 328 328 328 329 327 325 323 320 320 321 321 321 322 321 321 319 317 316 316 317 318 318 318 318 317 317 317 317 318 318 319 320 321 322 322 322 324 328 334 339 341 343 344 344 344 344 344 344 343 343 342 341
328 327 328 329 330 330 331 331 331 331 330 329 329 330 330 331 331 331 331 330 329 329 329 329 329 329 329 328 328 325 321 320 320 320 321 322 322 321 318 316 316 317 317 318 318 318 318 317 317 318 318 318 318 319 320 322 322 323 322 323 326 331 337 340 342 343 343 343 344 344 343 342 342 341
329 328 327 328 329 330 330 332 332 331 329 329 329 330 330 331 331 331 331 331 330 330 330 329 329 330 329 329 329 327 324 323 322 320 321 322 322 321 319 317 316 316 317 318 318 318 318 317 317 317 318 318 318 318 318 319 322 323 323 323 323 325 329 335 338 341 342 343 343 343 343 343 342 341
329 327 327 327 328 329 331 332 332 331 331 331 331 329 328 328 328 327 329 331 331 329 329 329 330 330 330 329 329 328 325 324 324 324 322 320 319 320 320 317 315 316 317 318 318 318 318 318 317 317 317 317 318 318 318 318 319 321 323 324 324 323 324 328 332 336 339 341 342 342 342 343 343 341
328 326 325 326 327 328 329 331 331 332 331 331 330 329 327 327 326 325 327 329 330 329 328 328 329 329 329 329 329 329 326 325 325 326 326 323 320 320 322 321 321 318 317 318 318 318 318 318 317 317 317 317 317 317 318 318 318 319 321 322 324 325 324 324 327 332 335 338 340 341 342 343 343 342
329 328 326 325 326 327 327 328 330 330 330 330 330 329 328 328 327 327 326 326 329 330 329 328 329 329 329 329 329 328 327 326 327 327 328 327 325 323 323 324 325 322 318 318 318 318 318 318 318 317 317 317 317 317 317 318 318 318 319 320 322 324 325 324 324 326 331 335 337 339 340 342 343 343
330 330 330 330 329 329 327 327 328 329 329 328 328 327 326 325 325 325 324 324 326 328 329 328 328 328 328 328 328 327 327 327 328 327 327 327 326 325 323 324 325 323 319 318 318 318 318 318 318 318 317 317 317 317 317 317 317 317 317 318 319 321 323 325 325 324 326 331 335 336 338 340 342 343
331 332 332 332 332 330 328 326 326 327 328 327 327 326 325 324 324 323 323 324 325 326 328 328 328 328 328 328 327 327 327 327 327 327 326 326 326 325 325 325 326 325 321 318 318 318 318 318 319 318 318 318 317 317 317 317 317 317 317 317 318 319 320 322 325 325 324 326 331 335 337 338 340 342
330 331 332 332 332 331 328 326 327 328 327 327 327 326 326 326 326 325 324 325 326 326 327 328 327 328 328 327 326 327 327 327 327 326 326 325 325 325 326 326 327 326 324 322 319 318 318 318 319 318 318 318 318 318 317 317 317 317 317 317 317 318 318 320 322 325 325 325 327 332 336 337 338 340
330 330 329 330 331 330 327 327 328 328 327 326 326 327 327 327 327 327 326 326 327 327 327 327 327 328 328 327 327 327 327 327 327 326 326 326 325 325 326 326 326 326 326 325 324 322 320 319 319 319 319 319 318 318 317 317 317 317 317 317 317 317 318 318 319 322 325 325 325 329 334 336 337 338
331 330 328 327 328 327 326 327 328 328 327 326 326 326 327 327 327 327 327 327 327 327 327 326 327 327 328 327 327 327 326 326 326 326 326 326 325 325 326 326 326 325 325 326 326 324 324 323 322 322 322 322 320 318 318 317 317 317 316 316 317 317 317 318 319 320 322 325 325 326 331 335 337 337
330 330 330 330 330 329 327 325 327 328 329 328 328 327 327 327 328 328 328 328 327 327 326 326 326 327 327 327 327 327 326 326 326 326 325 325 325 326 326 326 327 326 325 325 326 326 325 325 325 325 324 324 323 322 320 318 317 317 317 317 317 317 317 318 318 319 320 323 326 326 328 333 337 337
328 328 329 331 331 329 325 323 323 324 325 327 327 327 327 327 328 329 329 328 327 327 326 326 326 326 326 326 326 326 326 326 325 325 325 325 325 326 326 326 326 326 325 325 325 325 325 325 325 325 325 325 324 324 323 322 323 322 320 318 317 318 318 317 318 318 319 321 325 326 327 330 336 338
329 329 329 330 329 326 322 321 322 321 322 325 325 326 326 327 327 327 327 327 327 327 326 326 326 326 326 326 326 326 326 325 325 325 325 325 325 325 326 326 325 324 324 324 324 324 324 325 324 323 324 324 324 325 325 325 325 324 321 318 318 318 318 318 318 318 319 320 323 326 327 329 334 337
329 330 330 331 331 329 326 324 323 323 323 325 327 327 327 326 325 325 325 325 325 325 326 326 325 326 326 325 325 325 325 325 325 325 325 325 326 326 326 325 325 324 324 323 323 323 323 323 324 323 323 323 323 324 325 325 324 323 320 318 318 318 317 318 318 319 319 320 322 325 327 328 331 336
331 331 331 331 332 332 331 329 327 327 326 326 326 327 327 326 325 324 324 325 325 325 325 324 323 324 324 324 324 325 325 325 325 325 325 325 325 325 326 325 324 323 322 321 321 321 321 322 324 324 324 324 323 324 324 324 324 323 320 319 318 318 317 317 318 319 319 320 321 323 327 328 330 334
331 331 332 331 331 332 332 331 328 328 327 326 327 327 327 326 325 324 324 325 325 325 324 323 322 321 321 322 322 323 324 325 326 325 324 324 325 325 325 323 322 321 319 319 320 322 321 322 323 323 323 323 324 324 324 324 324 323 321 319 319 318 317 317 319 320 320 320 320 322 326 328 329 332
330 331 331 332 331 331 333 333 332 330 328 327 328 328 328 327 327 327 326 325 325 325 324 324 323 321 320 321 322 323 324 326 326 325 325 324 324 323 321 320 319 318 317 319 321 323 323 323 323 323 323 323 324 323 323 323 324 322 320 319 319 318 317 318 320 320 320 321 320 321 325 328 329 331
330 330 331 332 332 332 333 333 332 330 328 327 328 328 329 329 328 328 326 325 325 325 325 325 323 322 321 321 321 323 324 324 323 323 324 323 322 321 320 320 320 320 320 320 322 323 323 323 322 322 322 323 323 323 323 323 323 322 321 320 319 318 317 318 320 321 320 321 321 321 323 327 329 331
332 332 332 331 331 331 331 331 329 328 328 328 328 328 328 328 327 327 324 322 323 325 325 323 321 320 320 319 319 320 321 321 321 322 322 321 320 321 321 321 321 321 321 321 322 322 322 322 321 321 322 322 323 323 322 322 322 322 322 320 318 318 318 319 320 321 320 321 321 321 322 327 329 330
332 332 332 331 331 331 331 330 329 328 329 329 329 329 329 327 327 326 324 324 323 323 322 320 319 319 318 318 319 320 320 321 321 321 320 320 320 321 321 321 322 322 321 321 321 321 322 321 321 321 321 321 322 322 322 322 322 322 322 320 318 318 318 320 321 321 321 321 321 321 322 326 329 331
334 334 333 332 332 333 333 332 331 329 329 329 329 329 328 327 327 327 327 327 326 324 323 321 321 319 318 318 320 321 321 322 322 321 320 320 321 321 321 321 321 321 320 320 320 321 321 321 320 321 321 321 322 322 322 322 321 321 320 320 319 319 319 321 321 321 321 321 321 321 322 325 329 331
336 335 334 333 333 332 332 331 331 329 328 328 328 328 327 327 327 328 329 327 325 324 323 322 322 320 319 320 321 322 322 322 321 321 321 321 321 321 320 320 320 320 320 319 319 320 320 320 320 321 321 322 322 321 321 321 320 320 320 320 320 320 320 322 321 321 322 322 322 321 321 324 329 332
335 334 333 333 333 331 329 328 328 327 326 327 327 327 327 327 327 328 327 325 322 320 320 320 320 321 321 322 323 323 323 322 322 321 321 321 320 319 319 319 318 318 318 318 318 319 319 319 319 320 320 321 321 321 321 321 321 321 321 321 321 321 322 322 322 322 323 323 323 321 321 324 329 332
334 334 333 333 332 330 328 326 326 326 325 325 325 325 325 326 326 326 324 322 320 318 318 319 320 322 322 323 323 322 322 321 321 320 319 319 318 317 317 317 316 316 316 316 315 316 317 317 318 320 320 320 320 321 320 319 319 320 321 321 321 322 322 323 323 324 324 324 323 322 321 323 328 332
333 332 332 332 331 329 327 326 327 326 326 325 325 324 324 325 325 325 323 321 320 318 319 320 322 322 323 322 321 321 320 319 318 318 318 317 316 315 315 315 315 315 315 314 311 311 315 318 319 321 321 320 319 319 318 318 318 319 321 321 321 322 323 323 324 325 326 326 324 322 321 323 327 331
331 331 331 331 330 329 327 327 327 327 326 326 325 325 325 325 325 324 322 321 319 319 320 322 322 322 322 321 320 319 319 318 318 317 315 314 313 314 314 314 314 313 312 311 309 310 316 320 320 319 319 319 319 319 318 318 319 320 321 321 321 322 323 324 324 325 327 329 327 323 322 323 327 331
330 331 331 330 330 329 328 328 327 327 326 326 325 325 325 325 325 323 321 319 319 320 321 322 322 321 321 320 319 318 318 317 316 313 312 312 313 314 313 313 313 310 309 309 310 312 318 320 320 318 317 318 319 319 318 319 320 320 321 321 322 322 323 324 325 326 327 330 331 328 323 323 327 331
329 329 329 329 329 329 329 328 327 327 326 326 325 325 325 324 323 321 319 319 320 321 321 321 320 320 319 318 318 317 316 315 313 312 312 313 314 313 313 313 312 310 308 309 311 315 319 320 318 317 317 317 318 318 318 319 320 321 321 321 322 322 323 324 325 327 327 329 331 331 326 324 327 331
327 328 328 329 329 329 328 327 327 326 326 325 324 323 322 321 320 319 319 320 321 321 320 319 319 318 318 317 316 315 314 313 313 314 314 313 312 312 313 312 310 309 308 309 313 318 320 318 317 317 318 319 318 318 319 320 321 321 322 322 323 323 324 325 326 328 329 329 330 333 330 326 327 331
325 325 326 327 328 328 327 327 326 326 325 324 321 320 319 319 320 320 320 319 319 319 318 318 318 317 316 315 314 313 313 313 313 313 312 311 311 311 311 310 310 310 310 312 316 320 320 318 318 318 319 319 318 319 320 321 322 323 323 324 325 325 326 327 327 328 330 330 331 334 334 329 327 331
325 324 324 325 326 326 326 325 325 324 323 322 320 319 319 319 319 319 318 318 317 317 317 317 316 315 314 313 313 313 313 312 312 311 310 310 309 308 309 310 312 314 314 316 318 320 320 319 318 318 318 319 319 319 321 323 324 326 326 326 326 327 327 328 329 330 330 329 331 335 336 332 329 330
325 325 324 324 325 325 325 324 323 322 322 321 320 320 319 319 318 318 317 317 316 316 315 314 313 313 313 312 312 312 312 311 310 309 308 308 308 308 310 313 314 315 316 318 319 319 319 319 318 317 317 318 319 320 322 325 327 327 327 327 327 328 329 329 330 332 331 329 331 335 337 336 334 331
324 325 324 324 324 324 324 323 322 322 321 320 320 319 319 318 317 316 315 315 315 314 312 311 311 311 312 311 311 311 310 309 308 307 308 308 309 311 312 313 314 315 316 318 319 319 319 319 317 316 316 317 319 320 322 324 325 326 327 327 328 330 330 329 331 334 332 330 334 339 339 338 337 335
323 324 324 324 323 323 323 322 321 321 320 320 319 319 318 317 316 314 314 313 312 310 310 310 311 310 310 310 309 308 307 307 307 307 308 309 310 312 313 313 314 316 317 318 319 319 319 318 317 317 317 317 319 320 321 322 323 324 326 328 329 330 330 329 332 335 333 334 339 341 340 338 337 337
323 324 324 323 323 322 322 321 320 320 319 318 318 317 316 316 315 314 313 311 309 308 309 310 309 309 309 308 307 306 306 307 307 307 308 309 310 312 313 314 315 316 317 318 319 319 318 317 317 318 318 318 319 319 320 321 322 323 325 327 329 330 331 331 332 333 335 337 338 338 337 337 337 338
323 323 323 322 322 321 321 320 319 318 317 317 316 315 315 314 314 313 311 309 308 309 309 308 308 308 307 306 305 305 306 306 306 306 307 308 310 311 312 313 314 315 317 318 319 319 318 317 317 318 318 318 319 319 320 321 322 322 323 325 328 329 331 332 333 332 335 338 337 335 335 337 338 338
322 322 321 321 321 320 319 319 318 317 316 315 314 314 314 313 312 311 309 308 308 308 308 307 307 306 305 304 305 305 305 306 306 306 307 308 308 309 311 313 314 315 316 318 319 319 317 316 317 318 318 318 319 319 319 321 322 322 322 324 326 329 331 333 334 334 335 338 339 338 336 337 339 339
321 320 320 320 319 318 318 317 316 316 315 314 313 313 312 311 310 309 307 307 307 307 307 306 305 303 302 303 304 305 305 305 305 306 306 306 307 308 310 312 313 315 316 317 319 319 317 316 317 318 318 317 318 318 319 320 321 322 322 323 325 328 330 332 334 336 337 338 339 338 338 339 340 339
319 319 319 319 318 317 317 316 315 315 314 313 312 311 310 308 307 306 306 307 308 306 305 304 303 302 302 304 304 304 304 305 305 306 306 305 306 307 309 311 313 314 316 317 318 318 316 315 316 317 316 316 317 317 318 319 320 321 321 322 324 327 330 331 333 335 337 338 337 338 340 342 341 340
318 318 318 317 317 316 315 315 314 313 312 311 310 309 307 306 306 306 307 307 305 302 301 303 303 302 303 304 304 304 304 305 305 305 305 305 305 307 308 310 313 314 315 316 317 318 316 315 316 316 316 315 316 317 318 318 319 319 320 321 323 325 327 330 331 334 336 338 338 338 340 342 342 342
317 317 317 316 315 315 314 313 313 312 311 310 309 307 306 306 306 306 307 306 302 299 300 303 303 302 302 303 303 303 304 305 305 304 304 305 306 306 308 310 312 314 314 315 316 317 317 315 315 316 315 315 316 317 318 318 318 319 319 320 322 323 325 327 330 333 336 338 338 339 340 341 342 342
317 316 315 315 314 313 312 312 311 310 309 308 307 306 306 305 306 306 305 304 302 302 302 302 302 302 302 303 302 303 304 304 304 304 305 305 305 305 307 309 311 313 314 315 316 317 317 317 316 315 315 315 316 317 318 317 317 318 318 319 320 322 324 325 328 331 334 335 336 338 340 341 341 341
316 315 314 314 313 312 311 311 309 308 307 306 305 305 305 305 306 305 303 302 301 301 300 300 301 302 302 301 301 302 303 302 303 304 305 305 305 305 306 308 310 313 315 315 316 316 318 318 317 315 315 316 316 316 317 317 317 317 318 318 319 320 322 325 328 331 333 334 335 336 338 339 340 340
315 314 314 313 312 311 310 309 308 306 305 304 304 305 305 305 304 302 302 302 300 298 297 299 300 300 300 299 300 301 302 302 303 305 305 305 305 305 305 307 311 313 314 314 315 316 317 319 318 315 315 316 315 315 316 317 317 316 317 318 318 318 320 322 325 329 332 333 333 335 338 338 338 339
Wind_Speed
9 9 9 9 9 8 8 9 8 8 8 8 9 9 9 10 11 12 12 12 12 11 11 11 12 13 14 15 15 14 15 16 16 15 16 16 17 17 16 14 13 13 13 13 13 13 15 17 19 20 21 21 20 21 23 24 26 29 32 34 35 36 37 37 37 37 37 36 36 36 36 35 35 35
9 10 10 10 10 10 9 10 9 9 10 10 10 10 10 10 11 13 14 14 13 13 13 13 13 14 15 15 16 16 15 16 16 15 17 17 17 18 18 17 15 15 14 15 14 14 15 16 18 20 21 22 22 21 21 23 24 26 28 31 34 36 37 38 38 38 38 38 37 37 36 35 36 36
9 10 10 10 11 11 10 10 10 11 11 11 10 11 11 11 11 12 15 16 15 14 15 16 15 16 17 16 16 16 16 16 16 16 16 17 18 19 19 18 17 16 16 16 16 16 15 16 17 18 19 21 22 22 22 22 23 24 26 28 31 35 37 38 39 39 39 39 39 39 37 36 36 37
9 10 10 11 12 11 11 10 11 11 11 11 11 12 12 12 13 14 14 17 18 17 16 18 17 17 18 17 16 15 16 16 16 17 17 18 18 18 18 18 18 18 17 17 17 17 16 16 17 17 17 19 20 22 22 22 22 23 25 26 29 32 36 38 39 39 40 40 40 40 39 38 38 38
10 10 11 12 12 12 12 12 12 12 12 12 12 12 13 13 14 15 16 18 20 19 18 17 18 18 17 17 16 16 17 17 16 16 16 17 16 16 16 17 18 19 19 19 18 18 17 17 18 17 17 18 19 20 20 21 22 23 24 26 27 29 33 37 39 39 40 41 41 41 41 40 39 39
11 12 12 12 12 13 14 14 13 13 13 13 12 11 12 13 14 15 17 19 19 20 18 15 17 18 16 16 18 17 17 16 14 13 14 16 16 16 15 16 17 20 20 20 20 19 19 19 19 19 18 18 18 19 19 19 20 22 24 26 27 29 30 34 38 40 40 41 41 42 42 41 41 40
13 13 14 14 13 13 14 15 14 14 14 14 13 13 14 15 15 15 16 18 19 20 19 16 16 17 15 16 18 19 16 14 14 13 13 15 17 16 16 16 17 19 20 20 21 21 21 21 21 21 19 18 19 19 19 19 19 20 22 24 27 29 30 32 35 39 41 41 41 42 43 43 42 42
15 15 15 15 14 13 15 15 15 15 15 14 14 15 15 15 16 16 16 17 18 19 20 19 19 18 15 15 17 18 16 15 15 15 15 16 17 17 17 16 17 19 20 20 21 21 21 22 22 23 22 20 19 20 20 21 21 21 22 23 26 29 31 32 33 36 40 42 42 42 43 44 44 43
16 16 17 16 15 14 15 15 15 16 15 15 15 15 16 15 16 17 17 17 17 18 20 20 21 19 16 15 17 17 17 17 16 16 16 17 17 17 16 16 18 20 21 21 22 22 22 23 24 25 25 23 22 21 22 22 22 23 24 25 25 27 31 33 34 35 38 42 44 43 43 43 45 45
17 18 18 18 17 17 16 16 16 16 16 16 17 17 16 16 16 17 17 17 17 18 19 20 22 20 17 16 17 16 16 17 17 17 16 16 17 18 17 17 18 20 21 22 23 24 24 24 25 26 27 26 24 24 24 23 23 25 26 28 28 27 28 32 34 35 36 40 44 45 44 43 44 46
17 17 18 19 18 18 18 17 17 17 17 18 18 18 17 17 18 18 18 18 18 19 20 21 21 21 18 17 17 16 16 17 18 17 17 18 19 18 18 18 17 18 20 22 23 25 25 25 24 25 26 26 26 27 26 25 25 25 28 30 31 31 31 31 33 35 36 38 42 46 46 44 44 45
17 17 18 19 19 19 19 19 18 18 18 18 18 18 18 18 18 19 19 19 19 20 21 22 21 20 20 20 19 19 19 20 20 19 19 21 21 20 20 19 18 20 22 22 22 23 24 25 25 25 26 27 27 28 28 28 26 25 28 32 34 36 37 35 33 35 36 37 40 44 47 46 45 44
18 18 18 18 19 19 20 19 19 19 19 18 18 19 19 19 19 19 19 19 20 21 22 22 21 20 21 21 20 20 21 22 23 22 22 23 23 23 23 22 21 23 25 25 25 24 24 25 26 26 27 28 28 28 28 27 25 25 29 35 37 39 41 38 35 35 37 38 39 42 46 48 46 45
19 19 19 19 19 20 20 20 20 20 20 19 19 19 20 21 21 22 22 21 21 22 23 22 21 21 22 21 21 22 22 23 23 23 23 24 23 24 25 26 24 24 25 27 29 29 27 26 29 30 30 31 30 28 28 26 25 27 33 37 39 41 43 39 35 36 37 39 40 42 45 48 48 46
19 19 19 19 19 20 19 19 20 20 20 19 20 21 22 23 24 24 24 23 23 23 24 23 22 22 23 24 23 24 24 23 23 23 23 23 23 23 25 27 27 24 24 27 31 33 33 32 34 37 34 32 30 28 29 29 30 33 38 40 41 43 45 40 35 35 37 40 42 42 45 47 49 48
21 21 20 19 19 19 20 20 20 20 21 21 21 22 24 25 25 24 24 23 23 23 24 24 23 24 25 26 26 25 24 24 23 22 23 23 23 23 24 27 29 27 26 31 35 39 39 34 34 35 33 30 29 28 30 33 36 38 40 43 43 45 46 42 36 34 37 39 42 43 45 47 49 49
22 22 22 21 21 21 21 21 21 22 23 24 24 25 26 26 25 23 22 22 22 23 23 24 25 25 26 27 27 26 24 23 22 23 26 25 23 23 25 28 32 32 32 34 35 35 34 29 28 32 31 28 29 30 31 34 38 39 42 45 45 46 48 45 38 34 35 38 42 44 45 47 49 50
23 23 24 23 23 23 21 20 21 24 25 26 27 27 27 27 24 22 21 21 22 23 24 25 25 24 24 25 26 25 22 20 21 23 25 25 26 29 32 33 34 35 33 30 28 29 30 26 28 32 31 29 33 35 34 35 38 42 45 46 46 47 49 46 40 35 34 37 41 44 46 47 49 50
23 24 24 24 25 24 23 23 25 28 28 29 30 30 29 27 24 23 23 23 23 22 23 24 25 25 25 25 25 24 22 22 24 25 25 27 30 31 31 32 32 31 29 25 27 32 32 27 29 33 32 33 37 38 36 37 40 44 46 47 48 50 50 47 41 36 34 36 40 44 46 47 48 50
24 24 25 26 27 27 28 29 31 31 31 31 32 32 33 32 28 26 25 26 25 23 24 26 27 26 26 27 27 27 27 27 27 26 27 29 29 27 26 28 28 27 25 23 26 33 34 30 31 35 34 35 39 39 37 38 39 43 46 49 51 53 51 46 40 36 34 35 39 43 46 47 48 49
25 25 27 28 29 30 31 32 34 34 34 33 33 33 34 33 30 26 24 24 24 25 27 28 26 24 24 24 25 26 26 25 24 25 27 29 28 26 27 28 26 25 24 23 25 31 35 32 32 35 36 37 38 38 38 38 38 42 46 50 54 55 51 44 37 34 34 35 38 42 46 48 48 48
24 24 27 29 30 31 31 31 31 32 34 35 34 32 31 30 27 23 19 17 19 22 25 26 25 24 25 23 22 23 23 22 22 24 26 26 25 25 26 27 26 26 25 23 24 29 34 32 31 34 36 38 37 36 38 41 43 46 48 48 50 51 48 42 36 32 33 34 38 42 45 47 47 47
21 23 26 27 27 27 26 26 25 26 29 30 29 27 26 25 22 19 16 16 18 20 22 22 22 23 24 23 22 22 22 21 22 24 24 23 22 24 26 26 27 27 25 22 22 28 32 33 32 33 35 39 39 36 39 43 45 47 47 44 42 44 43 41 39 35 32 34 38 43 45 46 47 48
20 22 24 24 22 20 19 20 22 23 24 24 22 22 22 21 20 18 17 20 23 24 25 25 22 20 20 19 19 19 19 19 20 21 21 21 22 24 25 25 26 27 26 24 24 29 33 35 37 35 34 38 40 37 39 44 45 45 46 43 40 41 40 40 38 34 32 33 37 42 45 47 48 49
19 20 21 21 19 18 17 17 19 20 21 21 20 21 21 22 22 21 21 23 25 26 26 25 21 18 17 17 17 17 18 17 18 20 21 21 21 22 23 25 27 28 28 27 28 32 35 38 39 35 32 36 41 42 45 52 53 48 44 42 39 38 38 37 35 33 32 33 36 41 44 47 49 50
19 19 19 18 19 18 17 17 17 18 18 20 21 22 22 22 22 22 22 23 25 25 23 20 18 17 17 17 18 19 20 21 21 21 21 21 21 22 24 25 27 30 32 32 33 34 36 36 35 32 32 37 45 48 51 57 58 49 41 38 37 36 36 35 34 33 33 32 35 40 43 46 49 50
17 16 16 18 19 18 17 18 18 18 18 19 20 20 21 21 22 23 24 25 25 23 19 16 16 17 17 18 19 20 21 22 22 22 23 24 25 26 27 27 29 32 34 35 36 35 33 33 33 33 35 40 47 51 54 57 57 51 44 38 35 34 35 35 35 34 32 32 33 37 41 45 48 49
15 15 16 19 19 19 19 19 18 18 18 18 18 19 20 21 23 24 24 22 20 18 16 16 17 18 18 18 19 20 20 21 23 25 26 27 27 28 30 30 31 33 34 35 36 34 30 30 32 34 38 42 47 52 57 58 55 50 45 41 37 36 35 34 34 34 32 32 32 34 39 46 49 50
17 18 19 20 21 21 21 19 18 17 18 17 17 18 19 21 22 22 20 17 16 16 15 16 18 18 18 19 20 21 23 23 24 25 26 27 28 29 29 29 29 31 33 34 34 31 26 27 30 36 40 43 47 52 57 59 55 52 49 46 43 41 36 32 33 33 32 34 34 34 39 46 50 51
18 19 20 21 22 21 20 18 17 16 16 17 17 17 18 18 17 16 15 13 13 14 15 16 17 18 18 20 22 23 24 23 23 23 25 27 27 26 26 27 29 31 32 32 31 27 24 25 30 36 40 44 47 52 56 57 57 54 50 45 41 37 32 30 31 32 32 34 35 34 36 42 49 51
18 18 19 19 19 19 18 17 16 17 17 16 15 14 13 12 10 11 12 12 12 13 14 15 16 18 19 21 22 21 21 21 22 23 23 25 25 25 25 28 30 30 30 29 26 24 23 25 29 34 38 43 49 53 54 54 53 48 42 36 32 30 26 25 27 30 32 34 34 33 34 39 46 49
14 15 16 17 16 16 16 14 13 13 13 12 9 8 8 8 8 10 11 11 13 15 15 15 16 18 18 19 19 18 19 21 22 22 22 23 24 25 25 25 26 27 28 26 24 22 22 25 29 34 39 43 49 52 50 46 39 32 28 26 25 25 24 23 24 28 32 35 35 35 35 37 43 48
11 11 13 14 13 13 12 11 10 8 7 6 6 7 8 9 9 11 11 11 13 15 15 17 18 17 16 17 17 18 20 20 20 21 21 22 23 23 23 23 24 25 26 25 24 22 21 24 30 37 41 43 45 45 41 35 27 22 21 21 20 22 23 23 24 26 31 35 34 32 32 32 35 43
13 12 12 13 13 12 11 10 9 8 6 6 7 9 10 10 10 11 12 13 13 15 16 17 16 15 15 16 17 18 19 19 20 20 19 20 20 20 20 22 23 24 25 25 24 22 21 26 33 39 44 45 44 39 32 27 24 23 22 20 17 17 21 23 21 21 27 32 31 28 29 30 30 33
14 13 13 13 12 11 10 9 8 7 7 8 9 9 10 11 11 12 12 13 15 16 15 14 13 14 15 16 17 18 18 19 19 18 18 18 18 18 19 20 21 23 24 25 23 21 22 28 35 41 46 48 46 41 34 28 25 23 22 20 17 15 17 19 18 20 25 30 32 30 29 31 31 28
10 11 11 11 9 8 7 8 8 7 8 9 10 10 11 11 12 12 14 17 18 16 13 12 13 14 15 15 16 17 17 17 18 17 17 17 17 18 18 19 20 21 23 23 22 21 24 29 34 39 43 46 47 46 39 29 25 25 22 19 19 17 16 15 16 20 22 24 29 32 32 31 31 29
8 9 9 8 7 7 7 7 8 8 9 9 10 10 11 12 13 13 16 19 16 12 11 12 13 13 14 14 15 16 15 16 16 17 17 17 17 18 18 19 19 21 22 22 21 20 24 29 32 35 38 42 45 46 39 27 22 24 24 21 18 18 17 14 15 18 18 20 26 32 32 30 29 30
8 9 8 7 8 8 8 8 8 9 9 10 10 11 12 12 12 11 13 13 11 9 11 13 12 12 13 13 14 14 15 15 16 16 16 16 17 18 18 19 20 20 21 23 22 21 23 27 29 31 34 37 42 44 38 29 23 22 23 24 21 17 14 13 14 15 15 20 28 33 33 29 27 28
7 8 8 8 9 9 8 8 9 9 9 10 10 11 11 10 10 10 10 9 10 11 12 11 11 12 12 12 13 14 14 15 16 16 16 16 17 18 18 19 20 20 20 22 22 21 22 25 27 29 30 32 37 38 34 27 23 21 21 22 21 16 12 11 14 16 16 18 22 28 29 26 24 26
7 8 8 8 9 10 9 8 8 9 9 10 11 11 11 10 9 9 8 9 12 14 12 10 10 11 11 11 12 13 14 15 15 16 16 17 18 18 19 19 19 19 20 22 22 20 21 23 25 26 27 29 32 33 31 27 24 22 20 20 20 17 13 10 11 15 18 17 17 21 22 20 21 26
7 7 7 8 9 9 8 8 8 9 10 10 10 11 12 11 9 9 10 11 13 12 9 8 10 10 11 11 12 13 14 15 15 15 17 17 17 18 19 19 18 18 20 22 22 20 21 22 23 24 26 27 28 30 33 32 28 25 23 19 18 17 14 10 8 10 16 16 15 18 19 18 20 24
6 7 8 8 8 8 8 8 9 9 9 9 8 9 10 9 9 9 10 11 10 9 7 8 9 10 10 11 12 13 14 14 15 16 17 17 17 19 19 18 18 19 21 22 21 19 18 21 24 25 25 26 27 28 31 33 29 27 26 22 18 17 16 13 8 6 13 16 17 20 22 21 21 22
7 7 8 8 8 8 8 8 8 9 8 9 9 9 8 7 7 8 7 7 7 7 7 8 9 9 10 11 12 13 13 14 15 16 16 17 17 18 19 18 18 20 20 21 21 18 16 18 23 24 24 26 28 27 27 29 29 27 28 27 23 19 18 17 11 4 5 10 15 21 26 26 25 25
7 7 8 9 9 8 8 8 9 9 9 8 8 8 6 6 6 7 6 6 7 7 7 7 8 9 10 11 12 12 13 14 15 16 16 17 17 18 19 19 19 19 20 20 20 19 15 15 18 21 22 25 27 26 24 26 29 29 29 29 27 24 21 20 14 6 1 3 7 14 21 22 23 24
8 8 9 10 10 9 9 9 9 8 8 7 6 6 6 6 6 6 5 6 7 6 6 7 8 8 9 10 11 12 13 15 15 15 15 16 17 17 18 18 18 19 20 20 19 19 17 15 16 19 21 22 24 26 26 26 28 30 31 31 29 28 26 23 19 13 10 10 9 7 12 12 11 14
Wind_Direction
269 271 272 275 274 276 281 283 283 284 287 294 297 296 289 286 287 289 292 292 294 294 287 283 281 281 290 297 297 296 293 295 303 302 295 293 292 292 291 287 287 294 300 302 307 312 314 315 315 314 312 308 300 291 282 276 270 264 258 254 251 250 250 250 249 248 246 245 245 245 246 246 246 242
265 268 269 271 273 275 277 278 279 281 284 290 293 292 287 283 282 284 288 289 287 288 289 290 286 284 286 290 292 293 291 293 297 295 291 290 289 289 291 287 282 284 290 294 297 302 307 311 313 313 312 311 308 301 292 282 276 271 265 259 254 251 249 248 248 249 248 247 246 246 245 245 245 243
263 266 267 268 270 273 276 275 276 279 282 286 287 286 284 282 281 282 286 286 283 284 289 292 290 287 289 292 292 293 295 295 295 294 290 286 287 289 290 287 281 277 280 287 291 294 301 307 309 312 314 314 312 308 302 292 281 275 271 266 260 254 251 249 247 248 248 248 247 246 246 244 244 242
267 268 268 270 269 270 272 272 273 275 277 279 279 281 282 281 283 285 283 281 283 286 289 290 291 291 292 295 295 294 298 298 296 296 292 286 286 288 290 292 289 282 280 283 286 288 294 300 304 308 313 315 315 313 310 304 293 282 275 270 265 260 255 251 249 247 247 248 248 248 247 245 244 242
269 270 269 270 270 269 270 271 271 271 272 275 276 279 282 282 284 287 284 282 284 287 289 291 291 292 293 294 294 294 297 298 296 293 290 289 288 287 288 292 292 289 287 286 286 287 289 293 297 301 306 311 314 315 313 310 304 294 284 275 270 265 259 255 251 249 247 246 247 247 247 245 243 241
272 273 271 272 272 271 270 268 269 271 271 273 275 276 279 282 282 282 283 284 284 286 289 289 288 290 293 293 293 293 295 296 295 290 288 290 289 286 285 286 285 285 287 288 287 286 286 288 291 294 298 304 309 311 312 312 310 304 295 285 277 270 265 259 254 251 248 247 246 245 246 245 243 240
273 273 272 273 275 273 270 268 268 271 272 272 275 277 279 282 283 282 282 283 284 286 288 285 283 286 289 290 291 294 296 297 295 291 289 289 287 285 285 285 282 282 286 288 288 286 285 285 287 289 292 297 302 306 308 310 311 310 305 297 287 278 271 264 258 253 249 247 246 244 244 244 243 240
275 275 274 273 274 272 271 271 270 270 272 272 274 279 283 284 284 285 284 282 283 286 288 288 288 288 286 288 291 295 297 296 292 292 292 290 287 286 287 288 286 286 289 292 290 286 284 285 285 285 286 289 295 300 304 308 311 313 311 306 297 287 277 270 263 256 251 248 246 245 243 243 242 241
276 275 273 272 271 270 270 270 270 270 271 272 271 275 279 280 280 283 284 282 281 283 285 288 290 291 290 291 293 293 295 295 292 291 290 288 288 289 289 289 289 290 292 296 296 292 289 288 286 285 284 285 290 295 298 303 309 313 315 313 308 297 286 276 269 261 254 249 246 245 243 242 241 240
275 275 274 272 268 267 267 266 266 268 270 271 271 273 276 278 279 281 283 283 281 280 283 285 288 292 292 291 290 289 290 290 289 288 287 289 292 292 290 288 288 290 292 294 295 295 294 291 289 289 287 284 285 289 292 297 306 312 315 316 314 308 297 283 273 266 258 251 246 244 243 241 240 240
271 272 274 273 269 266 266 263 262 265 267 269 271 273 276 279 281 283 284 285 282 281 284 285 286 289 290 289 287 286 287 286 286 289 292 293 293 289 287 286 286 290 292 291 292 295 296 295 294 293 291 286 286 290 292 294 301 307 314 317 317 316 309 294 278 269 262 255 248 244 243 241 240 239
272 270 269 268 265 263 263 262 260 260 262 266 269 273 277 281 284 285 285 286 286 285 286 286 286 287 289 290 290 291 292 291 291 293 293 292 290 287 287 288 289 294 296 294 292 293 294 294 293 292 290 288 289 291 293 296 300 306 315 318 318 317 314 304 286 271 263 257 250 244 242 241 239 238
274 273 269 265 262 261 263 263 261 259 259 262 267 273 279 283 285 285 285 287 289 289 289 288 288 289 289 289 290 291 292 293 294 295 294 293 293 292 291 290 289 293 296 295 293 291 290 288 287 287 287 286 286 287 289 293 294 297 306 313 314 315 315 307 290 275 264 256 251 244 240 240 239 238
273 273 272 268 266 267 268 265 261 261 261 264 270 275 280 283 284 284 285 286 287 288 289 290 291 290 288 288 288 289 291 293 294 295 294 294 294 294 293 291 291 293 295 295 293 291 289 285 284 286 284 284 284 282 281 281 278 282 297 307 309 311 314 307 291 277 266 257 251 245 239 238 238 237
275 274 271 269 268 269 269 265 263 263 263 265 271 276 280 282 283 282 283 283 284 286 288 290 291 289 287 287 288 289 291 292 292 291 292 293 293 293 293 292 293 294 294 294 292 291 291 288 287 287 284 282 281 278 278 278 277 283 297 305 307 310 312 306 290 277 267 258 251 246 240 236 235 235
274 274 272 270 269 267 267 268 265 263 265 267 270 275 279 281 282 282 282 282 283 285 287 289 289 288 287 287 288 288 289 290 290 289 289 291 291 291 291 291 292 294 295 295 293 291 291 289 287 285 283 281 280 278 279 280 280 286 296 301 305 309 310 305 292 277 267 258 252 246 240 236 233 233
273 273 272 272 273 269 267 270 269 265 266 269 271 274 276 278 282 283 283 282 282 282 284 285 286 286 287 286 286 287 287 288 289 289 290 292 291 290 290 289 291 293 295 294 292 289 290 289 284 283 284 283 279 278 281 281 281 286 294 299 303 307 308 303 293 278 265 257 251 246 240 236 233 231
276 274 271 271 273 272 268 267 269 268 268 271 274 275 275 277 281 282 283 283 282 283 284 285 286 288 287 285 285 286 284 284 287 289 291 292 291 290 291 291 293 296 298 297 292 288 289 291 286 284 285 284 281 281 285 285 282 285 292 297 301 305 306 302 293 279 263 254 250 245 240 236 232 230
277 274 273 271 271 271 269 268 271 272 273 273 275 276 275 276 276 276 279 281 281 281 285 288 289 288 286 283 281 281 280 281 284 286 288 289 290 291 293 294 296 297 297 296 290 285 286 289 287 284 286 285 283 284 286 285 282 283 289 295 300 303 303 300 292 278 262 252 248 244 239 235 232 229
275 274 273 271 270 271 272 273 274 274 275 274 275 275 274 273 272 274 278 279 277 277 282 286 286 284 282 281 278 277 278 280 283 285 286 288 291 292 292 292 292 292 290 289 285 283 284 287 286 286 287 286 284 284 284 283 281 282 286 294 300 302 301 298 290 276 262 250 244 242 239 234 231 228
275 274 273 274 276 277 275 274 273 273 273 272 272 273 274 275 277 280 281 280 278 281 285 289 290 287 286 284 280 278 278 279 282 284 286 290 293 291 289 289 289 290 290 290 287 283 284 287 288 288 289 287 284 284 284 282 281 283 287 293 299 300 299 296 287 272 262 250 241 239 237 233 229 227
276 275 275 276 278 278 278 276 274 272 270 269 269 271 273 275 279 280 278 276 279 284 289 294 296 295 295 294 289 284 280 277 279 284 290 294 293 288 288 290 292 292 291 291 289 286 287 290 290 290 290 289 285 284 286 287 288 291 293 295 297 298 295 292 286 274 261 249 239 236 234 231 228 226
277 278 281 282 280 278 276 274 271 269 268 268 268 269 271 272 273 273 271 271 276 281 285 288 290 291 293 295 295 291 287 284 287 292 295 295 290 288 290 292 293 292 291 293 292 289 290 292 291 290 292 292 291 291 292 293 294 296 296 294 293 292 288 284 283 275 260 247 237 233 231 228 225 224
278 281 284 285 284 281 275 270 267 267 267 266 265 265 268 268 267 265 269 274 280 283 285 286 287 287 289 292 290 288 288 289 292 294 292 288 287 289 290 289 289 289 289 293 294 291 291 292 291 291 293 294 295 296 296 295 294 295 296 292 289 288 284 280 279 272 257 244 235 231 230 226 222 221
278 280 281 281 280 279 276 272 269 267 265 264 264 265 266 266 265 266 272 278 283 287 289 290 291 288 288 289 286 283 285 285 286 288 287 284 283 285 286 288 289 289 289 293 295 293 293 293 292 293 295 295 295 296 298 299 299 297 295 292 287 284 281 277 273 267 254 241 231 228 228 224 220 219
276 277 277 275 274 276 276 274 271 268 264 263 265 267 266 267 267 269 274 278 283 287 289 286 285 284 285 286 286 286 288 289 289 288 285 284 284 284 285 287 287 288 291 295 299 299 295 291 290 293 297 299 299 300 301 301 301 299 295 290 285 280 278 274 268 261 252 241 231 226 225 223 219 218
279 279 275 272 273 275 275 273 271 270 268 267 268 268 268 267 268 269 273 278 282 285 283 280 281 285 286 287 288 289 289 289 288 285 284 287 289 289 289 289 288 289 291 295 301 303 296 287 288 296 301 301 300 300 300 300 300 299 295 289 283 277 274 269 263 256 248 241 235 228 224 221 218 217
274 271 269 269 272 275 275 275 274 272 271 272 273 273 273 272 272 273 277 280 282 281 280 282 285 287 287 289 290 289 286 285 287 289 291 295 295 293 294 294 293 293 295 298 303 305 296 286 291 301 306 303 298 297 300 301 300 297 293 289 283 276 271 264 258 251 242 237 234 227 222 218 215 214
272 271 270 271 273 276 276 276 275 271 271 273 276 277 276 274 273 275 276 278 279 280 282 284 286 288 290 290 289 287 286 288 292 296 299 299 298 298 297 295 294 296 299 302 305 305 295 290 299 308 308 303 300 300 302 303 300 296 292 289 284 278 270 259 251 244 237 234 230 224 220 217 213 211
277 277 275 274 275 277 277 274 271 269 270 274 276 275 271 269 271 276 279 277 275 277 281 284 286 288 288 288 288 290 292 295 297 299 301 301 301 300 298 297 298 300 302 305 306 303 297 300 309 311 306 303 305 306 306 302 298 295 292 287 280 274 267 253 241 235 232 233 228 221 218 216 212 211
282 278 275 274 274 275 275 271 267 267 270 273 274 271 267 266 265 269 273 274 275 279 282 284 287 289 290 292 293 295 296 297 297 299 300 300 300 302 302 303 304 305 306 307 307 306 304 306 311 312 308 306 309 312 310 303 297 292 288 282 272 264 256 244 234 227 226 229 226 216 213 214 211 211
284 281 279 277 273 272 271 264 263 269 270 268 268 266 265 269 270 267 272 282 289 291 290 286 288 292 294 295 297 296 296 296 298 301 302 301 303 307 309 307 305 306 307 307 308 312 310 307 312 317 317 314 315 318 314 307 298 290 282 274 263 256 247 236 230 227 224 226 225 214 206 207 209 211
267 270 277 277 270 266 260 250 251 260 259 260 268 264 261 270 276 276 281 290 292 290 289 289 292 295 295 295 297 298 298 299 301 304 305 306 308 312 312 308 305 306 308 307 309 315 315 312 318 324 324 324 327 326 318 306 296 289 282 272 261 254 246 236 233 232 226 224 223 212 200 200 206 210
260 258 263 263 260 257 251 245 246 247 247 258 268 270 276 284 280 276 282 287 285 284 288 292 294 295 295 297 300 300 301 303 305 307 309 309 310 310 310 308 307 309 310 310 312 317 317 319 327 331 332 333 337 337 330 319 309 298 290 283 273 262 252 243 238 232 224 218 213 202 195 196 202 209
263 261 260 259 258 257 256 256 256 254 260 266 266 270 280 286 284 286 288 285 283 287 293 294 294 295 297 299 301 301 303 306 309 310 311 310 310 310 309 309 310 311 312 313 316 320 322 326 333 337 338 339 341 342 343 342 335 321 304 289 283 275 262 253 242 231 223 212 199 191 194 199 201 205
260 258 260 262 262 259 261 265 264 263 266 267 268 272 276 279 285 288 282 280 286 294 295 292 295 298 299 300 302 304 306 309 310 312 313 313 314 314 312 311 313 314 314 316 320 324 326 331 337 339 339 340 340 340 340 342 343 341 329 304 285 276 273 266 248 236 229 212 197 195 200 201 201 202
261 261 260 264 264 259 260 264 264 265 265 262 265 272 277 281 286 281 276 283 294 300 294 294 300 302 300 302 304 306 309 311 311 313 315 316 317 317 316 316 318 317 318 322 326 328 329 333 339 343 343 340 338 337 338 340 343 346 342 327 304 286 278 265 243 235 232 218 206 205 206 204 202 204
253 262 261 259 257 253 254 257 256 258 262 265 271 276 278 281 281 277 281 292 297 295 295 301 301 298 300 305 307 308 311 313 314 316 318 319 320 320 318 319 321 320 322 326 330 333 334 337 343 348 348 345 340 337 338 343 349 352 345 336 326 310 287 257 229 225 229 221 209 202 202 204 204 205
239 252 254 253 252 247 246 250 252 256 262 267 274 277 277 279 280 280 284 289 290 295 302 302 297 300 307 310 309 310 313 314 316 318 320 321 322 321 319 321 323 323 324 327 331 335 338 342 347 351 353 351 347 345 345 348 356 359 351 341 335 327 304 259 224 213 217 222 213 200 196 201 206 209
244 248 245 245 249 247 245 250 256 263 267 268 269 273 276 277 277 280 283 286 292 301 306 300 299 308 312 311 311 313 314 314 317 318 320 321 323 322 322 323 324 323 324 330 336 339 341 345 349 351 354 355 353 353 358 1 3 4 1 355 351 346 327 289 248 216 206 214 220 205 191 190 201 209
248 250 246 244 248 252 255 260 262 266 269 270 272 281 286 283 273 272 281 289 295 303 307 302 304 310 311 312 315 316 314 317 319 319 321 323 323 323 324 325 326 325 326 332 339 342 343 347 348 348 349 352 355 359 3 4 5 8 10 11 11 9 360 333 292 234 205 205 213 206 195 192 197 202
244 247 249 249 250 253 258 262 261 263 268 270 270 278 286 284 279 282 293 299 304 312 314 306 307 312 313 314 317 317 317 319 319 319 322 325 324 326 327 327 327 328 327 328 334 338 341 346 350 351 353 357 2 5 3 2 5 11 16 19 24 28 30 21 346 264 220 216 216 205 197 196 196 197
246 248 251 253 251 251 256 259 258 261 266 268 271 276 276 275 280 289 295 296 298 306 308 305 309 316 317 317 320 321 320 319 320 321 324 325 325 327 328 325 327 330 329 327 329 333 338 345 351 357 3 8 9 8 4 4 10 16 20 24 27 34 48 52 40 359 250 240 230 210 198 195 194 196
249 248 253 256 253 253 259 259 259 268 273 270 271 276 274 267 272 280 282 283 287 295 303 310 317 321 319 321 324 323 321 322 324 325 325 326 327 328 328 328 329 331 332 332 331 333 338 346 352 359 7 12 15 14 10 11 14 18 23 28 29 32 47 64 66 61 146 203 203 202 202 200 195 196
254 249 253 256 255 255 259 259 261 271 276 267 261 265 268 268 272 274 277 282 287 294 305 315 319 319 321 327 330 330 328 329 329 327 325 327 330 330 330 333 333 332 336 340 338 336 340 348 355 2 10 17 23 24 23 21 21 23 28 33 34 33 39 53 65 76 91 95 102 160 202 209 203 196